Flag for U.S.A. Weather past 2 weeks in Post Falls, Idaho, U.S.A.

Now
36 °F

Mostly cloudy.


Feels Like: 31 °F
Forecast: 36 / 51 °F
Wind: 6 mph from South

Location: Coeur d'Alene Weather Reporting System


UV Index: 3 (Moderate)

Visibility: 10 mi


Pressure: 29.86 "Hg

Humidity: 87%

Dew point: 32 °F

Location of Post FallsLocation

Historic Weather in Post Falls

°F

Post Falls temperature yesterday

Maximum temperature yesterday: 50 °F (at 5:15 PM)
Minimum temperature yesterday: 36 °F (at 10:35 PM)
Average temperature yesterday: 45 °F

Past Weeks' High & Low Weather Summary

 TemperatureHumidityPressure
High70 °F (Apr 8, 1:55 PM)100% (Apr 20, 10:55 PM)30.36 "Hg (Apr 20, 10:55 PM)
Low28 °F (Apr 13, 5:35 AM)11% (Apr 9, 7:15 PM)29.67 "Hg (Apr 22, 4:35 AM)
Average46 °F60%29.99 "Hg
* Reported Apr 8 4:15 AM — Apr 23 4:35 AM, Post Falls, Weather by CustomWeather, © 2014

Note: Actual official high and low records may vary slightly from our data, if they occured in-between our weather recording intervals... More about our weather records

Advertising

Historic Weather Conditions — Data for Previous 24 hours

 ConditionsComfort  
Time TempWeatherWind HumidityBarometerVisibility
4:35 AM
Apr 23
36 °FMostly cloudy.5 mph81%29.86 "Hg10 mi
4:15 AM34 °FPassing clouds.No wind81%29.87 "Hg10 mi
3:55 AM34 °FClear.No wind87%29.86 "Hg10 mi
3:35 AM32 °FClear.No wind80%29.86 "Hg10 mi
3:15 AM34 °FClear.No wind81%29.85 "Hg10 mi
2:55 AM36 °FClear.No wind75%29.85 "Hg10 mi
2:35 AM34 °FClear.No wind75%29.85 "Hg10 mi
2:15 AM36 °FClear.8 mph70%29.84 "Hg10 mi
1:55 AM36 °FClear.7 mph75%29.84 "Hg10 mi
1:35 AM36 °FClear.8 mph75%29.83 "Hg10 mi
1:15 AM36 °FClear.6 mph75%29.83 "Hg10 mi
12:55 AM34 °FClear.7 mph93%29.83 "Hg10 mi
12:35 AM34 °FClear.8 mph87%29.82 "Hg10 mi
12:15 AM36 °FClear.6 mph81%29.82 "Hg10 mi
11:55 PM
Apr 22
36 °FClear.No wind81%29.81 "Hg10 mi
11:35 PM36 °FClear.No wind81%29.81 "Hg10 mi
11:15 PM36 °FClear.No wind81%29.80 "Hg10 mi
10:55 PM36 °FClear.3 mph81%29.80 "Hg10 mi
10:35 PM36 °FClear.5 mph87%29.80 "Hg10 mi
10:15 PM37 °FClear.3 mph87%29.79 "Hg10 mi
9:55 PM39 °FClear.3 mph65%29.79 "Hg10 mi
9:35 PM37 °FPassing clouds.7 mph87%29.78 "Hg10 mi
9:15 PM41 °FPassing clouds.7 mph76%29.78 "Hg10 mi
8:55 PM43 °FClear.9 mph71%29.77 "Hg10 mi
8:35 PM43 °FPassing clouds.9 mph66%29.77 "Hg10 mi
7:55 PM43 °FPartly sunny.8 mph87%29.75 "Hg10 mi
7:35 PM45 °FCloudy.8 mph81%29.75 "Hg10 mi
7:15 PM46 °FMostly cloudy.21 mph76%29.76 "Hg10 mi
6:55 PM46 °FMostly cloudy.8 mph82%29.74 "Hg10 mi
6:35 PM46 °FMore clouds than sun.10 mph82%29.74 "Hg10 mi
6:15 PM48 °FMostly cloudy.13 mph94%29.75 "Hg10 mi
5:55 PM48 °FBroken clouds.20 mph100%29.74 "Hg10 mi
5:35 PM48 °FScattered clouds.18 mphN/A29.74 "Hg10 mi
5:15 PM50 °FBroken clouds.21 mph100%29.74 "Hg10 mi
4:55 PM48 °FMostly cloudy.17 mph100%29.73 "Hg10 mi
4:35 PM48 °FMostly cloudy.9 mph100%29.74 "Hg10 mi
4:15 PM48 °FMostly cloudy.6 mph100%29.74 "Hg10 mi
3:55 PM48 °FCloudy.13 mph100%29.73 "Hg10 mi
3:35 PM48 °FMostly cloudy.14 mph100%29.73 "Hg10 mi
3:15 PM48 °FCloudy.16 mphN/A29.72 "Hg10 mi
2:55 PM46 °FBroken clouds.13 mphN/A29.73 "Hg10 mi
2:15 PM46 °FBroken clouds.16 mphN/A29.72 "Hg10 mi
1:55 PM46 °FCloudy.15 mphN/A29.73 "Hg6 mi
1:35 PM46 °FCloudy.17 mph100%29.72 "Hg10 mi
1:15 PM45 °FMostly cloudy.16 mphN/A29.72 "Hg5 mi
12:55 PM45 °FCloudy.14 mphN/A29.72 "Hg8 mi
12:35 PM45 °FCloudy.9 mph100%29.72 "Hg10 mi
12:15 PM45 °FCloudy.10 mph100%29.73 "Hg8 mi
11:55 AM45 °FMostly cloudy.14 mphN/A29.73 "Hg10 mi
11:35 AM45 °FCloudy.10 mphN/A29.72 "Hg7 mi
11:15 AM45 °FOvercast.10 mphN/A29.72 "Hg10 mi
10:55 AM45 °FOvercast.10 mphN/A29.72 "Hg9 mi
10:35 AM45 °FOvercast.9 mphN/A29.71 "Hg10 mi
10:15 AM45 °FMore clouds than sun.8 mphN/A29.71 "Hg10 mi
9:55 AM45 °FCloudy.10 mphN/A29.70 "Hg10 mi
9:35 AM45 °FMostly cloudy.8 mphN/A29.70 "Hg10 mi
9:15 AM45 °FOvercast.12 mphN/A29.69 "Hg10 mi
8:55 AM46 °FMostly cloudy.14 mph87%29.69 "Hg10 mi
8:35 AM46 °FMostly cloudy.13 mph87%29.70 "Hg10 mi
8:15 AM46 °FOvercast.14 mph87%29.69 "Hg10 mi
7:55 AM46 °FCloudy.10 mph87%29.69 "Hg10 mi
7:35 AM45 °FMostly cloudy.10 mph93%29.69 "Hg10 mi
7:15 AM45 °FMore clouds than sun.14 mph93%29.69 "Hg10 mi
6:55 AM45 °FOvercast.10 mph93%29.69 "Hg9 mi
6:35 AM46 °FOvercast.7 mph82%29.69 "Hg8 mi
6:15 AM46 °FOvercast.9 mph82%29.68 "Hg8 mi
5:55 AM46 °FMostly cloudy.13 mph76%29.69 "Hg10 mi
5:35 AM46 °FOvercast.9 mph71%29.68 "Hg10 mi
Weather by CustomWeather, © 2014

See weather overview